Aérodrome :
LOGIN :

S'inscrire | Disclaimer

   EN    FR    IT 

 










Légende :    VFR   VFR Marginal   IFR   IFR Intensif   IFR Très Intensif
Visi : 
Plafond : 
>= 8 km
>= 3000ft
5 à 8 km
1000 à 3000 ft
1500m à 5 km
500 à 1000 ft
800 à 1500m
200 à 500 ft
< 800m
< 200 ft
Symboles :   Orages  Brouillard  Fortes neiges  Fortes précipitations  Vent > 20 kt
SIGMETs :   Divers  Orages  Givrage  Turbulence  Onde Orograph.  Cendres Volcan.







- Altitude de l'aérodrome : 24 ft
- Code IATA : FAO


LPFR - Faro

DERNIER METAR :
  • 230000Z VRB02KT CAVOK 17/12 Q1022

METARs EXPIRÉS :
  • 222330Z 21003KT CAVOK 15/11 Q1022
  • 222300Z 26004KT CAVOK 17/11 Q1022
  • 222230Z 33004KT CAVOK 18/08 Q1023
  • 222200Z 34006KT CAVOK 18/09 Q1023

TAF TAF LPFR
Valide du 23 à 00h jusqu'au 24 à 00h UTC


222300Z 2300/2324 VRB03KT CAVOK
BECMG 2300/2302 04007KT
BECMG 2309/2311 12012KT
BECMG 2317/2319 01005KT
Pas de NOTAMs connus pour ce terrain.



MET'MAP, la Météo Aéronautique d'un coup d'oeil ! - Copyright ORBIFLY Décembre 2007 - Disclaimer

ORBIFLY MET'MAP TEAM :

Programmation & Développement : Alexandra Zaïnal
Conception & Développement : Baudouin d'Aumeries
Co-Programmation & Développement : Marc-Olivier Méhu
Soutien technique & logistique : Manuel Goepfert

Contact : metmap@orbifly.com




SOURCES & CREDITS :

   NOAA